[Date Prev][Date Next][Thread Prev][Thread Next] - [Date Index][Thread Index][Author Index]
2 Line ISS Keps 6-11
- Subject: [sarex] 2 Line ISS Keps 6-11
- From: "Dave Larsen PhD" <doc@xxxxxxxxxxx>
- Date: Fri, 11 Jun 2004 01:30:41 -0700
ISS
1 25544U 98067A 04163.17662037 .00014696 00000-0 12995-3 0 9698
2 25544 51.6331 356.3830 0005412 218.7866 291.1286 15.68898484317370
----
Via the sarex mailing list at AMSAT.ORG courtesy of AMSAT-NA.
To unsubscribe, send "unsubscribe sarex" to Majordomo@amsat.org
AMSAT Home